Location: Gloden
(48.4833°N, 15.3167°E)
Time: 01:35:37
(UTC+00:00)

Cosmos 2278 Rocket - Pass Details

Date: 15 December 2019
Orbit: 843 x 844 km, 71.0° (Epoch: 22 January)

Event Time Altitude Azimuth Distance (km) Brightness Sun altitude
Rises 05:18:18 0° 183° (S) 3,388 5.6 -13.3°
Reaches altitude 10° 05:20:51 10° 176° (S) 2,457 4.9 -12.9°
Maximum altitude 05:26:05 41° 108° (ESE) 1,217 3.7 -12.1°
Drops below altitude 10° 05:31:20 10° 40° (NE) 2,473 4.9 -11.3°
Sets 05:33:54 0° 33° (NNE) 3,412 5.5 -10.9°
